COSMOS 2494 (SKRL-756 2)

Last updated on Fri Sep 11 2026 00:03:40 GMT+0000 (Coordinated Universal Time)

1 39491U 13078B 26253.58068014 .00002796 00000+0 19324-3 0 9990 2 39491 82.4155 166.6590 0014460 276.2857 83.6722 15.05305940691655
UTC large
Height (km)
Speed (km/s)
/
Latitude / Longitude
Inclination (degrees)
Orbital Period (minutes)
Azimuth
Elevation
Range (km)
Doppler Factor

Next 0 passes for location: London (51.5072 / 0.1276)

No passes found over London.
COSMOS 2494 (SKRL-756 2)